sat.trackr.live / text

‹ back to catalog

ONEWEB-0525

NORAD 54143 · 2022-138AG

PAYLOAD ACTIVE UNKNOWN

§ Identity

Operator
Country
UK
Launch date
2022-10-22
Launch site
SRILR
Launch vehicle
Mass (kg)
RCS (m²)

Purposes: comms

External: N2YO · Heavens-Above · Gunter

§ Orbital elements

Epoch: 2026-09-19T18:44:19.871520Z

Period
109.11 min
Inclination
87.9109°
Eccentricity
0.0001805
Mean motion
13.19723946 rev/d
Perigee alt
1,184.4 km
Apogee alt
1,187.1 km
Semi-major
7,563.9 km
B*
2.9461e-4
RAAN
286.1226°
Arg perigee
78.9804°
Mean anomaly
281.1532°
Rev number
18,930

§ Raw data

ONEWEB-05251 54143U 22138AG  26262.78078555  .00000131  00000+0  29461-3 0  99952 54143  87.9109 286.1226 0001805  78.9804 281.1532 13.19723946189308

JSON: /api/v1/satellites/54143 · /tle

For live sub-satellite position, see the globe view (requires WebGL).

§ Visibility from observer

Set your observer location to see the next 7 days of passes ≥ 10°. The values pass through the URL so the page stays shareable.

No JS? Fill the form by hand. The geolocation button needs JavaScript.